Weather History for Jefferson, NC

Change the Weather History Date:

Saturday, December 8, 2012

  Actual Average Record
Temperature  
Mean Temperature 52 °F -  
Max Temperature 63 °F 48 °F 71 °F (1998)
Min Temperature 40 °F 27 °F 5 °F (1977)
Degree Days  
Heating Degree Days 14    
Growing Degree Days 2 (Base 50)    
Moisture  
Dew Point 43 °F    
Average Humidity 74    
Maximum Humidity 95    
Minimum Humidity 34    
Precipitation  
Precipitation 0.00 in - - ()
Sea Level Pressure  
Sea Level Pressure 30.01 in    
Wind  
Wind Speed 2 mph (WSW)    
Max Wind Speed 13 mph    
Max Gust Speed 20 mph    
Visibility 9 miles    
Events      
Averages and records for this station are not official NWS values.
T = Trace of Precipitation, MM = Missing Value Source: NWS Daily Summary

Daily Weather History Graph

Daily Weather History Graph

Search for Another Location

Airport:

Trip Planner

Search our weather history database for the weather conditions in past years. The results will help you decide how hot, cold, wet, or windy it might be!

Date:

Astronomy

Dec. 08, 2012 Rise Set
Actual Time 7:25 AM EST 5:10 PM EST
Civil Twilight 6:56 AM EST 5:38 PM EST
Nautical Twilight 6:24 AM EST 6:11 PM EST
Astronomical Twilight 5:53 AM EST 6:42 PM EST
Moon 1:55 AM EST (12/8) 1:33 PM EST (12/8)
Length of Visible Light 10h 42m
Length of Day
9h 44m
Waning Crescent, 28% of the Moon is Illuminated
Dec 8
Waning Crescent
Dec 13
New
Dec 20
First Quarter
Dec 28
Full
Jan 4
Last Quarter

Hourly Weather History & Observations

Time (EST) Temp. Windchill Dew Point Humidity Pressure Visibility Wind Dir Wind Speed Gust Speed Precip Events Conditions
12:15 AM 42.6 °F 40.9 °F 41.4 °F 95% 30.00 in 2.0 mi WSW 3.5 mph - N/A   Mostly Cloudy
12:35 AM 44.4 °F - 43.0 °F 95% 30.00 in 10.0 mi Calm Calm - N/A   Scattered Clouds
12:55 AM 40.8 °F - 39.6 °F 95% 30.00 in 0.8 mi Calm Calm - N/A   Overcast
1:15 AM 42.1 °F - 40.6 °F 95% 30.00 in 3.0 mi Calm Calm - N/A   Scattered Clouds
1:35 AM 40.6 °F - 39.4 °F 95% 29.99 in 0.8 mi Calm Calm - N/A   Mostly Cloudy
1:55 AM 41.0 °F - 39.7 °F 95% 29.99 in 1.0 mi Calm Calm - N/A   Overcast
2:15 AM 41.5 °F - 40.3 °F 95% 29.99 in 2.0 mi Calm Calm - N/A   Scattered Clouds
2:35 AM 43.9 °F - 42.4 °F 95% 29.98 in 10.0 mi Calm Calm - N/A   Clear
2:55 AM 44.6 °F - 43.2 °F 95% 29.98 in 10.0 mi Calm Calm - N/A   Scattered Clouds
3:15 AM 45.3 °F 44.0 °F 43.7 °F 94% 29.98 in 10.0 mi SSW 3.5 mph - N/A   Mostly Cloudy
3:35 AM 44.4 °F - 42.8 °F 94% 29.98 in 4.0 mi Calm Calm - N/A   Mostly Cloudy
3:55 AM 45.7 °F - 43.7 °F 93% 29.98 in 10.0 mi Calm Calm - N/A   Mostly Cloudy
4:15 AM 46.8 °F - 43.2 °F 87% 29.98 in 10.0 mi Calm Calm - N/A   Overcast
4:35 AM 49.8 °F - 44.1 °F 81% 29.98 in 10.0 mi West 4.6 mph - N/A   Overcast
4:55 AM 47.7 °F - 42.3 °F 82% 29.98 in 10.0 mi Calm Calm - N/A   Overcast
5:15 AM 45.9 °F 43.6 °F 41.9 °F 86% 29.99 in 10.0 mi WNW 4.6 mph - N/A   Overcast
5:35 AM 48.6 °F - 43.9 °F 84% 29.99 in 10.0 mi Calm Calm - N/A   Overcast
5:55 AM 49.8 °F - 43.7 °F 79% 29.99 in 10.0 mi Calm Calm - N/A   Overcast
6:15 AM 50.0 °F - 43.7 °F 79% 29.99 in 10.0 mi West 4.6 mph - N/A   Overcast
6:35 AM 51.1 °F - 44.4 °F 78% 30.00 in 10.0 mi West 3.5 mph - N/A   Overcast
6:55 AM 51.1 °F - 44.8 °F 79% 30.00 in 10.0 mi West 4.6 mph - N/A   Overcast
7:15 AM 50.7 °F - 44.4 °F 79% 30.00 in 10.0 mi SW 3.5 mph - N/A   Overcast
7:35 AM 49.5 °F - 43.7 °F 81% 30.01 in 10.0 mi Calm Calm - N/A   Overcast
7:55 AM 48.4 °F - 43.0 °F 82% 30.01 in 10.0 mi Calm Calm - N/A   Overcast
8:15 AM 50.4 °F - 43.7 °F 78% 30.02 in 10.0 mi Calm Calm - N/A   Overcast
8:35 AM 50.4 °F - 44.1 °F 79% 30.02 in 10.0 mi Calm Calm - N/A   Overcast
8:55 AM 51.1 °F - 44.4 °F 78% 30.02 in 10.0 mi Calm Calm - N/A   Overcast
9:15 AM 50.4 °F - 44.8 °F 81% 30.02 in 10.0 mi ESE 3.5 mph - N/A   Mostly Cloudy
9:35 AM 52.2 °F - 45.1 °F 77% 30.03 in 10.0 mi Calm Calm - N/A   Scattered Clouds
9:55 AM 54.0 °F - 44.2 °F 70% 30.03 in 10.0 mi Calm Calm - N/A   Mostly Cloudy
10:15 AM 54.0 °F - 45.1 °F 72% 30.03 in 10.0 mi Calm Calm - N/A   Overcast
10:35 AM 54.0 °F - 45.1 °F 72% 30.04 in 10.0 mi Calm Calm - N/A   Overcast
10:55 AM 56.1 °F - 45.0 °F 66% 30.03 in 10.0 mi West 11.5 mph 17.3 mph N/A   Overcast
11:15 AM 57.2 °F - 43.7 °F 61% 30.03 in 10.0 mi West 10.4 mph 19.6 mph N/A   Overcast
11:35 AM 57.2 °F - 43.5 °F 60% 30.02 in 10.0 mi West 11.5 mph 17.3 mph N/A   Mostly Cloudy
11:55 AM 57.2 °F - 43.9 °F 61% 30.02 in 10.0 mi West 12.7 mph 17.3 mph N/A   Overcast
12:15 PM 57.6 °F - 44.1 °F 61% 30.01 in 10.0 mi West 11.5 mph - N/A   Mostly Cloudy
12:35 PM 57.7 °F - 43.7 °F 60% 30.01 in 10.0 mi West 8.1 mph - N/A   Mostly Cloudy
12:55 PM 58.5 °F - 43.0 °F 56% 30.00 in 10.0 mi West 8.1 mph - N/A   Overcast
1:35 PM 60.1 °F - 43.3 °F 54% 29.99 in 10.0 mi West 5.8 mph - N/A   Mostly Cloudy
1:55 PM 61.3 °F - 42.4 °F 50% 29.98 in 10.0 mi WSW 3.5 mph - N/A   Mostly Cloudy
2:15 PM 62.8 °F - 39.0 °F 42% 29.98 in 10.0 mi West 8.1 mph - N/A   Scattered Clouds
2:35 PM 62.6 °F - 37.2 °F 39% 29.98 in 10.0 mi WSW 4.6 mph - N/A   Clear
2:55 PM 62.8 °F - 34.5 °F 35% 29.98 in 10.0 mi WSW 6.9 mph 16.1 mph N/A   Clear
3:15 PM 63.0 °F - 34.3 °F 34% 29.99 in 10.0 mi West 8.1 mph 17.3 mph N/A   Clear
3:35 PM 62.1 °F - 34.9 °F 36% 30.00 in 10.0 mi WSW 10.4 mph - N/A   Clear
3:55 PM 61.9 °F - 35.6 °F 38% 30.00 in 10.0 mi West 5.8 mph - N/A   Clear
4:15 PM 61.5 °F - 37.0 °F 40% 30.00 in 10.0 mi WSW 6.9 mph - N/A   Clear
4:35 PM 60.8 °F - 38.1 °F 43% 30.01 in 10.0 mi Calm Calm - N/A   Clear
4:55 PM 57.6 °F - 43.0 °F 58% 30.01 in 10.0 mi SE 3.5 mph - N/A   Clear
5:15 PM 56.3 °F - 43.7 °F 63% 30.02 in 10.0 mi SSE 3.5 mph - N/A   Clear
5:35 PM 55.2 °F - 43.9 °F 66% 30.02 in 10.0 mi SSE 3.5 mph - N/A   Clear
5:55 PM 54.1 °F - 44.6 °F 70% 30.03 in 10.0 mi South 3.5 mph - N/A   Clear
6:15 PM 53.1 °F - 44.4 °F 72% 30.03 in 10.0 mi South 4.6 mph - N/A   Clear
6:35 PM 52.9 °F - 44.8 °F 74% 30.03 in 10.0 mi Calm Calm - N/A   Clear
6:55 PM 52.0 °F - 44.8 °F 76% 30.04 in 10.0 mi Calm Calm - N/A   Clear
7:15 PM 52.5 °F - 45.0 °F 75% 30.04 in 10.0 mi SE 3.5 mph - N/A   Clear
7:35 PM 52.2 °F - 45.0 °F 76% 30.04 in 10.0 mi Calm Calm - N/A   Clear
7:55 PM 52.9 °F - 45.1 °F 75% 30.04 in 10.0 mi Calm Calm - N/A   Clear
8:15 PM 51.4 °F - 45.0 °F 79% 30.05 in 10.0 mi Calm Calm - N/A   Clear
8:55 PM 51.4 °F - 45.0 °F 79% 30.05 in 10.0 mi Calm Calm - N/A   Clear
9:15 PM 51.1 °F - 45.0 °F 80% 30.05 in 10.0 mi Calm Calm - N/A   Clear
9:35 PM 51.8 °F - 45.1 °F 78% 30.05 in 10.0 mi Calm Calm - N/A   Clear
9:55 PM 49.5 °F - 45.0 °F 84% 30.06 in 10.0 mi Calm Calm - N/A   Clear
10:15 PM 50.2 °F - 44.6 °F 81% 30.05 in 10.0 mi Calm Calm - N/A   Clear
10:35 PM 50.0 °F - 44.6 °F 82% 30.05 in 10.0 mi Calm Calm - N/A   Clear
10:55 PM 48.7 °F - 44.4 °F 85% 30.06 in 10.0 mi Calm Calm - N/A   Clear
11:15 PM 49.3 °F - 44.6 °F 84% 30.05 in 10.0 mi Calm Calm - N/A   Clear
11:35 PM 49.6 °F - 45.0 °F 84% 30.05 in 10.0 mi Calm Calm - N/A   Clear
11:55 PM 47.1 °F - 44.6 °F 91% 30.06 in 7.0 mi Calm Calm - N/A   Clear